sat.trackr.live / text

‹ back to catalog

YAOGAN-43 01C

NORAD 60460 · 2024-148C

PAYLOAD ACTIVE UNKNOWN

§ Identity

Operator
Country
PRC
Launch date
2024-08-16
Launch site
XICLF
Launch vehicle
Mass (kg)
RCS (m²)

External: N2YO · Heavens-Above · Gunter

§ Orbital elements

Epoch: 2026-09-22T10:16:30.939168Z

Period
94.53 min
Inclination
34.9990°
Eccentricity
0.0005119
Mean motion
15.23260248 rev/d
Perigee alt
492.5 km
Apogee alt
499.5 km
Semi-major
6,874.2 km
B*
2.4068e-4
RAAN
270.9243°
Arg perigee
356.1483°
Mean anomaly
3.9192°
Rev number
11,697

§ Raw data

YAOGAN-43 01C1 60460U 24148C   26265.42813587  .00005812  00000+0  24068-3 0  99922 60460  34.9990 270.9243 0005119 356.1483   3.9192 15.23260248116976

JSON: /api/v1/satellites/60460 · /tle

For live sub-satellite position, see the globe view (requires WebGL).

§ Visibility from observer

Set your observer location to see the next 7 days of passes ≥ 10°. The values pass through the URL so the page stays shareable.

No JS? Fill the form by hand. The geolocation button needs JavaScript.